Regional Weather Roundup
Issued by NWS Wakefield, VA

Home | Current Version | Previous Version | Text Only | Print | Product List | Glossary Off
Versions: 1 2 3 4 5 6 7 8 9 10 11 12 13 14 15 16 17 18 19 20 21 22 23 24 25 26 27 28 29 30 31 32 33 34 35 36 37 38 39 40 41 42 43 44 45 46 47 48 49 50

000
ASUS41 KAKQ 221215
RWRAKQ

REGIONAL WEATHER ROUNDUP
NATIONAL WEATHER SERVICE WAKEFIELD VA
700 AM EST SUN JAN 22 2017

Note: "fair" indicates few or no clouds below 12,000 feet with no
significant weather and/or obstructions to visibility. * = Denotes
station may not report precipitation (e.g., rain,snow,etc.),
thunder or fog.

VAZ042-051-052>054-056-221300-
NORTHERN VIRGINIA

CITY           SKY/WX    TMP DP  RH WIND       PRES   REMARKS
WASH NATIONAL  DRIZZLE   47  47 100 N8        29.71R FOG
DULLES         FOG       46  45  96 NE5       29.71R VSB 1/8
FORT BELVOIR   CLOUDY    47  46  97 N3        29.69R FOG
QUANTICO       FOG       48  48 100 N6        29.70R VSB 1
FREDERICKSBRG* CLOUDY    48  48 100 N3        29.68R
STAFFORD*      CLOUDY    47  47 100 NW3       29.73R FOG
WARRENTON      CLOUDY    49  46  91 N5        29.69R FOG
CULPEPER*      CLOUDY    48  48 100 CALM      29.70R
MANASSAS*      FOG      N/A N/A N/A CALM      29.70  VSB 1/4
LEESBURG*      CLOUDY    46  46 100 CALM      29.72R
WINCHESTER     CLOUDY    43  43 100 CALM      29.71R FOG
FRONT ROYAL*   CLOUDY    45  45 100 CALM      29.69R
LURAY*         CLOUDY    45  45 100 NE3       29.69R FOG
$$

VAZ048-049-060>072-079>083-221300-
CENTRAL AND SOUTH CENTRAL VIRGINIA

CITY           SKY/WX    TMP DP  RH WIND       PRES   REMARKS
RICHMOND       CLOUDY    48  48 100 N3        29.66R
CHESTERFIELD*  CLOUDY    50  36  57 NE3       29.67R
PETERSBURG*    CLOUDY    48  48 100 CALM      29.67S FOG
HANOVER        FOG       48  47  96 VRB3      29.68R VSB 3/4
TAPPAHANNOCK*  CLOUDY    48  48 100 CALM      29.67R FOG
QUINTON*       CLOUDY    47  47 100 NW3       29.65R
CHARLOTTSVILLE CLOUDY    49  47  93 N5        29.68R
GORDONSVILLE*  CLOUDY    48  48 100 NE3       29.68R FOG
ORANGE*          N/A     48  48 100 CALM      29.71R FOG
LOUISA*        FOG       52  52 100 N5        29.67R VSB 1/2
BUMPASS*       CLOUDY    48  48 100 N3        29.67R VSB 3/4
FARMVILLE*     CLOUDY    51  51 100 CALM      29.67R FOG
CREWE*         CLOUDY    50  50 100 NW3       29.65F VSB 1/2
FORT PICKETT*  CLOUDY    50  46  88 N5        29.66F VSB 1
CHASE CITY*    CLOUDY    50  48  94 CALM      29.68R
CLARKSVILLE*   CLOUDY    50  50 100 CALM      29.68R
SOUTH HILL*    CLOUDY    50  50 100 CALM      29.72R
LAWRENCEVILLE* CLOUDY    50  49  97 CALM      29.66R
EMPORIA*       CLOUDY    50  50 100 CALM      29.68R FOG
$$

VAZ088>098-221300-
SOUTHEAST VIRGINIA

CITY           SKY/WX    TMP DP  RH WIND       PRES   REMARKS
NORFOLK        FOG       49  48  97 VRB5      29.62R VSB 1
VIRGINIA BEACH FOG       48  47  96 W3        29.62R VSB 1
NORFOLK NAVAL  CLOUDY    51  49  92 N5        29.64S FOG
WEST POINT*    CLOUDY    48  47  99 CALM      29.67R
SALUDA*        CLOUDY    47  47 100 CALM      29.64S VSB 3/4
NEWPORT NEWS   CLOUDY    51  50  96 NW5       29.64R
LANGLEY AFB    CLOUDY    50  50 100 N8        29.62R
FORT EUSTIS    CLOUDY    50  48  94 NW6       29.62R FOG
WILLIAMSBURG*  CLOUDY    50  50 100 NW3       29.65R
HR EXEC AP*    CLOUDY    52  48  87 CALM      29.62S
FRANKLIN*      CLOUDY    50  49  97 CALM      29.64F FOG
US460-WAKEFLD  CLOUDY    50  50 100 VRB3      29.64R FOG
$$

VAZ020-022-025-037-045-221300-
WEST CENTRAL AND SOUTHWEST VIRGINIA

CITY           SKY/WX    TMP DP  RH WIND       PRES   REMARKS
STAUNTON*      FOG       44  44 100 CALM      29.70R VSB 3/4
WAYNESBORO*    CLOUDY    46  44  95 CALM      29.67R VSB 1/4
HOT SPRINGS VA CLOUDY    46  45  93 E7        29.66S
LYNCHBURG      FOG       49  48  97 CALM      29.71R VSB 1/2
DANVILLE       CLOUDY    51  51 100 CALM      29.68R
SOUTH BOSTON*  CLOUDY    51  49  95 CALM      29.69R
MARTINSVILLE   CLOUDY    49  49  99 CALM      29.70S
ROANOKE        CLOUDY    50  50 100 E5        29.70R
BLACKSBURG     CLOUDY    48  48 100 CALM      29.69F FOG
DUBLIN*        CLOUDY    49  49 100 NE3       29.67F FOG
MARION*        FOG       50  49  96 E6        29.68S VSB 1/4
HILLSVILLE*    FOG       49  49 100 CALM      29.66S VSB 1/4
RICHLANDS*     FAIR      50  48  95 SE5       29.62F
WISE*          CLOUDY    50  50 100 CALM      29.61S
ABINGDON*      CLOUDY    51  51 100 E9        29.61F
$$

MDZ021>025-VAZ099-100-221300-
SOUTHERN MARYLAND AND THE DELMARVA PENINSULA

CITY           SKY/WX    TMP DP  RH WIND       PRES   REMARKS
PATUXENT RIVER LGT RAIN  47  47 100 N10       29.66R FOG
BAY BRIDGE APT FOG       43  43 100 N6        29.69R VSB 3/4
LEONARDTOWN    CLOUDY    45  45 100 N5        29.68R
DOVER          DRIZZLE   45  45 100 N8        29.65F
GEORGETOWN     LGT RAIN  48  47  96 E5        29.65F
EASTON         CLOUDY    48  46  93 NE7       29.69F FOG
CAMBRIDGE      CLOUDY    46  46 100 CALM      29.65R
SALISBURY      CLOUDY    48  48 100 NE8       29.64F
OCEAN CITY     CLOUDY    47  47 100 N8        29.63F
WALLOPS ISLAND LGT RAIN  51  51 100 NE15      29.63S FOG
ACCOMACK*      CLOUDY    53  52  97 N7        29.61R FOG
$$

NCZ012>017-030>032-221300-
NORTH CENTRAL AND EASTERN NORTH CAROLINA

CITY           SKY/WX    TMP DP  RH WIND       PRES   REMARKS
ROANOKE RAPIDS CLOUDY    50  50 100 N5        29.65F FOG
RALEIGH        CLOUDY    53  52  96 W5        29.70R
ELIZABETH CITY FOG       54  54 100 W5        29.63R VSB 1/2
AHOSKIE*         N/A     50  50  99 CALM      29.67R FOG
EDENTON*       FOG       56  56 100 CALM      29.65R VSB 1/2
CURRITUCK*     FOG       54  54 100 W5        29.65R VSB 3/4
KILL DEVIL HLS NOT AVBL
MANTEO         CLOUDY    57  57 100 W6        29.63S
CAPE HATTERAS  CLOUDY    60  57  89 W13G22    29.66R FOG
TARBORO*       NOT AVBL
GOLDSBORO      CLOUDY    60  60 100 SW8       29.66R
WASHINGTON     CLOUDY    59  59 100 SW6         N/A
GREENVILLE     CLOUDY    59  59 100 W3        29.70R FOG
NEW BERN       CLOUDY    59  57  93 SW6       29.68R
WILMINGTON     CLOUDY    59  58  96 SW10      29.70R
$$

VAZ048-221300-
ELSEWHERE

CITY           SKY/WX    TMP DP  RH WIND       PRES   REMARKS
HARRISBURG PA  CLOUDY    43  43 100 N3        29.69F FOG
BALTIMORE      FOG       45  45 100 CALM      29.69F VSB 3/4
ANNAPOLIS      CLOUDY    45  44  97 N6        29.68S FOG
ANDREWS AFB    DRIZZLE   45  45 100 N9        29.68R FOG
PHILADELPHIA   CLOUDY    46  45  96 NE7       29.70F
HENDERSON NC   CLOUDY    48  48  98 CALM      29.68R FOG
GREENSBORO     CLOUDY    51  51 100 S5        29.69R FOG
ROCKY MOUNT    FOG       53  53 100 NW6       29.67R VSB 1
$$

VAZ100-221300-
MARINE

STATION/POSITION TIME  TEMP    WIND        PRES    WAVE   SWELL
                       AIR SEA DIR/SP/G            HT/PER HT/PER
                 (UTC) (F)     (DEG/KT/KT) (MB)    (FT/S) (FT/S)
CAPE MAY NJ      1148   46 42   70/  7/ 12 1003.6F
LEWES DE         1148      42   90/ 12/ 14 1003.6F
OCEAN-CITY-INLET 1148      42   40/  6/ 13 1003.6F
WACHAPREAGUE VA  1148   52 48   30/ 10/ 15 1002.5R
THOMAS POINT MD  1200   43 40  360/ 10/ 11   N/A
GOOSES REEF MD   1150   42     360/ 12/ 14 1005.2F
COVE POINT MD    1148   42     360/ 10/ 14 1004.8R
SOLOMONS ISLAND  1148      42  350/  8/  9   N/A
BISHOPS HEAD MD  1148   47 45  360/  4/  5 1004.0R
PINEY POINT MD   1148          360/  6/  6   N/A
POTOMAC MD       1150   45      20/ 10/ 12 1002.7F
CAMBRIDGE MD     1148   46 40   CALM  /  1 1003.5F
LEWISETTA VA     1148   46 44  360/  2/  3 1003.7R
RAPPAHANNOCK LGT 1148          330/ 14/ 14 1004.1R
STINGRAY PT      1150   45     350/  6/  8 1004.1R
YORK RVR RNG VA  1148   47      10/ 13/ 14 1002.6R
YORKTOWN VA      1148   48 44  310/  7/  9 1003.4R
JAMESTOWN VA     1150   48     320/  4/  6   N/A
DOMINION TERM VA 1148   47     320/  7/  8 1003.3R
CHES BAY BRIDGE  1148   45 45  340/ 11/ 13 1003.0R
CAPE HENRY VA    1148   47     280/  8/ 10   N/A
WILLOUBY STN VA  1148   49     310/  7/  7 1004.2R
S CRANEY ISL VA  1148   49     350/  3/  5 1003.2R
CAPE HENRY BUOY  1142      49                N/A     3/11   2/11
OFFSHORE WE BUOY 1151      49                N/A     3/13   2/13
64NM E OF VA BCH 1150   56 58  270/ 12/ 12 1002.0R   6/ 7   5/ 7
DUCK PIER NC     1148   56 45  270/  8/  9 1002.7R
44100 DUCK FRF   1135      48                N/A     5/ 6   2/13
44056 DUCK FRF   1130      46                N/A     4/12   2/12
OREGON INLET NC  1142   51 51  200/  9/ 10 1003.4R
HATTERAS NC      1148      54  240/ 11/ 16 1003.9R
DIAMOND SHLS NC  1150   66 73  240/ 23/ 29 1003.8R   6/ 5   3/13
CAPE LOOKOUT NC  1200   59     250/ 11/ 13 1004.2F
$$



USA.gov is the U.S. government's official web portal to all federal, state and local government web resources and services.